This is the latest recevied weather packets stored in our database for station/object HB9KBJ-8. If no packets are shown the sender has not sent any weather packets the latest 10 day(s).
| Time | Temp. | Humidity | Pressure | Rain* | Wind** | Luminosity | Snow |
|---|---|---|---|---|---|---|---|
| 1778181140 | 12.22° C | 79% | 1014.7 hPa | 0 mm | - | 0 W/m² | - |
| 1778180842 | 12.22° C | 78% | 1014.6 hPa | 0 mm | - | 0 W/m² | - |
| 1778180542 | 12.22° C | 78% | 1014.6 hPa | 0 mm | - | 0 W/m² | - |
| 1778180237 | 12.22° C | 77% | 1014.6 hPa | 0 mm | - | 0 W/m² | - |
| 1778179957 | 12.22° C | 76% | 1014.6 hPa | 0 mm | - | 0 W/m² | - |
| 1778179653 | 12.22° C | 77% | 1014.6 hPa | 0 mm | - | 0 W/m² | - |
| 1778179343 | 12.78° C | 75% | 1014.6 hPa | 0 mm | - | 0 W/m² | - |
| 1778179045 | 13.33° C | 74% | 1014.6 hPa | 0 mm | - | 7 W/m² | - |
| 1778178749 | 13.33° C | 72% | 1014.5 hPa | 0 mm | - | 9 W/m² | - |
| 1778178452 | 13.89° C | 70% | 1014.5 hPa | 0 mm | - | 9 W/m² | - |
| 1778178148 | 13.89° C | 69% | 1014.5 hPa | 0 mm | - | 12 W/m² | - |
| 1778177844 | 13.89° C | 68% | 1014.4 hPa | 0 mm | - | 16 W/m² | - |
| 1778177542 | 13.89° C | 67% | 1014.4 hPa | 0 mm | - | 30 W/m² | - |
| 1778177244 | 14.44° C | 68% | 1014.3 hPa | 0 mm | - | 40 W/m² | - |
| 1778176948 | 14.44° C | 68% | 1014.3 hPa | 0 mm | - | 51 W/m² | - |
| 1778176643 | 14.44° C | 68% | 1014.3 hPa | 0 mm | - | 60 W/m² | - |
| 1778176346 | 14.44° C | 66% | 1014.3 hPa | 0 mm | - | 35 W/m² | - |
| 1778176044 | 15° C | 64% | 1014.2 hPa | 0 mm | - | 33 W/m² | - |
| 1778175747 | 15.56° C | 62% | 1014.2 hPa | 0 mm | - | 46 W/m² | - |
| 1778175445 | 15.56° C | 61% | 1014.2 hPa | 0 mm | - | 54 W/m² | - |
| 1778175148 | 16.11° C | 60% | 1014.1 hPa | 0 mm | - | 58 W/m² | - |
| 1778174846 | 16.11° C | 60% | 1014.1 hPa | 0 mm | - | 54 W/m² | - |
| 1778174547 | 15.56° C | 60% | 1014.1 hPa | 0 mm | - | 156 W/m² | - |
| 1778174233 | 15.56° C | 59% | 1014.1 hPa | 0 mm | - | 165 W/m² | - |
| 1778173935 | 16.11° C | 59% | 1014 hPa | 0 mm | - | 137 W/m² | - |
* Rain latest hour (hover to see other rain measurements)
** Current wind speed in m/s (hover to see current wind gust speed)